Regional Weather Roundup
Issued by NWS

Home | Current Version | Previous Version | Graphics & Text | Print | Product List | Glossary On
Versions: 1 2 3 4 5 6 7 8 9 10 11 12 13 14 15 16 17 18 19 20 21 22 23 24 25 26 27 28 29 30 31 32 33 34 35 36 37 38 39 40 41 42 43 44 45 46 47 48 49 50
000
ASUS44 KMEG 282300
RWRTN
TENNESSEE HOURLY STATE WEATHER ROUNDUP
NATIONAL WEATHER SERVICE MEMPHIS TN
600 PM CDT MON JUL 28 2014

TNZ002-004-019-021-049-052-054-088>092-290000-
WEST TENNESSEE

CITY           SKY/WX    TMP DP  RH WIND       PRES   REMARKS
MEMPHIS INTL   MOSUNNY   83  61  47 N14       30.03F
NWS MEMPHIS      N/A     82 N/A N/A MISG        N/A
JACKSON        MOSUNNY   82  62  50 N13       30.02F
DYERSBURG      MOSUNNY   81  59  47 N9        30.04S
UNION CITY     SUNNY     79  63  57 NW12      30.02S
PARIS          MOSUNNY   79  63  57 VRB5      30.03S
LEXINGTON      PTSUNNY   79  63  57 N13       30.01S
SAVANNAH       SUNNY     82  63  51 N12       30.01F
$$

TNZ008-025-027-028-033-062-065-066-290000-
NORTH MIDDLE TENNESSEE

CITY           SKY/WX    TMP DP  RH WIND       PRES   REMARKS
NASHVILLE      MOSUNNY   82  59  45 N15       29.98F
CLARKSVILLE    PTSUNNY   81  57  43 NW14      30.00F
COOKEVILLE     MOSUNNY   79  64  61 N8        29.99S
CROSSVILLE     CLOUDY    75  59  57 NW10      30.02S
$$

TNZ061-075-076-078-094-096-097-290000-
SOUTH MIDDLE TENNESSEE

CITY           SKY/WX    TMP DP  RH WIND       PRES   REMARKS
FAYETTEVILLE   SUNNY     79  61  53 NW14      29.99S
TULLAHOMA      PTSUNNY   79  61  53 N9        30.00F
WINCHESTER     PTSUNNY   79  61  53 NW8       29.99S
SHELBYVILLE    SUNNY     81  63  54 NW12      29.99F
$$

TNZ017-018-042-046-047-290000-
NORTHEAST TENNESSEE

CITY           SKY/WX    TMP DP  RH WIND       PRES   REMARKS
TRI CITIES     PTSUNNY   76  58  53 NW9       29.95S
ELIZABETHTON   MOCLDY    72  57  60 W9          N/A
$$

TNZ012-013-036-069-073-074-290000-
CENTRAL EAST TENNESSEE

CITY           SKY/WX    TMP DP  RH WIND       PRES   REMARKS
KNOXVILLE      PTSUNNY   77  61  57 NW7       29.94F
OAK RIDGE      CLOUDY    79  60  52 VRB3      29.97S
GATLINBURG     MOCLDY    75  59  57 NW6       29.94F
$$

TNZ083-085-099-290000-
SOUTHEAST TENNESSEE

CITY           SKY/WX    TMP DP  RH WIND       PRES   REMARKS
CHATTANOOGA    MOSUNNY   83  58  42 NW14      29.96S
$$

SKY/WX REPORTED AS FAIR MEANS FEW OR NO CLOUDS BELOW
12 THOUSAND FEET.




USA.gov is the U.S. government's official web portal to all federal, state and local government web resources and services.